| time (UTC) | temp F | wind direction | speed MPH | gust MPH | rain 1hr in | rain 24hr in | rain mn in | humidity % | barometer mb |
| 20260507043041 | 39 | 360 | 0.0 | 2.0 | 0.00 | 0.00 | 0.00 | 83 | 1014.7 |
| 20260507041539 | 38 | 360 | 0.0 | 3.0 | 0.00 | 0.00 | 0.00 | 82 | 1014.6 |
| 20260507040037 | 38 | 360 | 1.0 | 4.0 | 0.00 | 0.00 | 0.00 | 81 | 1014.5 |
| 20260507034536 | 38 | 360 | 0.0 | 1.0 | 0.00 | 0.00 | 0.00 | 81 | 1014.5 |
| 20260507033035 | 38 | 360 | 0.0 | 1.0 | 0.00 | 0.00 | 0.00 | 81 | 1014.4 |
| 20260507031535 | 37 | 360 | 0.0 | 5.0 | 0.00 | 0.00 | 0.00 | 81 | 1014.3 |
| 20260507030036 | 37 | 360 | 3.0 | 5.0 | 0.00 | 0.00 | 0.00 | 82 | 1014.3 |
| 20260507024529 | 37 | 360 | 1.0 | 4.0 | 0.00 | 0.00 | 0.00 | 82 | 1014.2 |
| 20260507023026 | 38 | 360 | 0.0 | 1.0 | 0.00 | 0.00 | 0.00 | 84 | 1014.1 |
| 20260507021522 | 39 | 360 | 0.0 | 5.0 | 0.00 | 0.00 | 0.00 | 85 | 1014.1 |
| 20260507020020 | 41 | 360 | 0.0 | 1.0 | 0.00 | 0.00 | 0.00 | 83 | 1014.2 |
| 20260507014514 | 45 | 360 | 0.0 | 4.0 | 0.00 | 0.00 | 0.00 | 84 | 1014.0 |
| 20260507013014 | 45 | 360 | 1.0 | 4.0 | 0.00 | 0.00 | 0.00 | 85 | 1013.9 |
| 20260507011510 | 45 | 360 | 4.0 | 7.0 | 0.00 | 0.00 | 0.00 | 85 | 1013.9 |
| 20260507010010 | 45 | 360 | 5.0 | 9.0 | 0.00 | 0.00 | 0.00 | 85 | 1013.8 |
| 20260507004507 | 45 | 360 | 6.0 | 9.0 | 0.00 | 0.00 | 0.00 | 85 | 1013.8 |
| 20260507003007 | 45 | 360 | 4.0 | 8.0 | 0.00 | 0.00 | 0.00 | 86 | 1013.7 |
| 20260507001508 | 45 | 360 | 5.0 | 9.0 | 0.00 | 0.00 | 0.00 | 85 | 1013.7 |
| 20260507000003 | 46 | 360 | 5.0 | 9.0 | 0.00 | 0.00 | 0.00 | 85 | 1013.6 |
| 20260506234601 | 46 | 360 | 5.0 | 8.0 | 0.00 | 0.00 | 0.00 | 85 | 1013.6 |
| 20260506233100 | 46 | 360 | 5.0 | 9.0 | 0.00 | 0.00 | 0.00 | 86 | 1013.5 |
| 20260506231610 | 46 | 360 | 5.0 | 9.0 | 0.00 | 0.00 | 0.00 | 88 | 1013.6 |
| 20260506230110 | 46 | 360 | 3.0 | 8.0 | 0.00 | 0.00 | 0.00 | 88 | 1013.4 |
| 20260506224553 | 46 | 360 | 5.0 | 12.0 | 0.00 | 0.00 | 0.00 | 89 | 1013.4 |
| 20260506223050 | 47 | 360 | 7.0 | 11.0 | 0.00 | 0.00 | 0.00 | 90 | 1013.3 |
| 20260506221608 | 47 | 360 | 9.0 | 13.0 | 0.00 | 0.00 | 0.00 | 90 | 1013.3 |
| 20260506214547 | 47 | 360 | 10.0 | 12.0 | 0.00 | 0.00 | 0.00 | 90 | 1013.2 |
| 20260506213100 | 48 | 360 | 8.0 | 13.0 | 0.00 | 0.00 | 0.00 | 90 | 1013.1 |
| 20260506211542 | 48 | 360 | 8.0 | 12.0 | 0.00 | 0.00 | 0.00 | 89 | 1013.0 |
| 20260506210051 | 49 | 360 | 9.0 | 14.0 | 0.00 | 0.00 | 0.00 | 88 | 1013.0 |
| 20260506204539 | 49 | 360 | 9.0 | 13.0 | 0.00 | 0.00 | 0.00 | 86 | 1012.9 |
| 20260506203037 | 49 | 360 | 3.0 | 9.0 | 0.00 | 0.00 | 0.00 | 77 | 1012.9 |
| 20260506201539 | 49 | 360 | 2.0 | 7.0 | 0.00 | 0.00 | 0.00 | 74 | 1012.7 |
| 20260506200036 | 50 | 360 | 4.0 | 8.0 | 0.00 | 0.00 | 0.00 | 73 | 1012.6 |
| 20260506194533 | 50 | 360 | 6.0 | 11.0 | 0.00 | 0.00 | 0.00 | 73 | 1012.5 |
| 20260506193031 | 51 | 360 | 4.0 | 9.0 | 0.00 | 0.00 | 0.00 | 73 | 1012.4 |
| 20260506191530 | 51 | 360 | 5.0 | 11.0 | 0.00 | 0.00 | 0.00 | 71 | 1012.4 |
| 20260506190031 | 52 | 360 | 6.0 | 0.0 | 0.00 | 0.00 | 0.00 | 72 | 1012.2 |
| 20260506184526 | 52 | 360 | 6.0 | 10.0 | 0.00 | 0.00 | 0.00 | 72 | 1012.0 |
| 20260506183025 | 53 | 360 | 7.0 | 12.0 | 0.00 | 0.00 | 0.00 | 72 | 1011.9 |
| 20260506181524 | 53 | 360 | 5.0 | 10.0 | 0.00 | 0.00 | 0.00 | 72 | 1011.7 |
| 20260506180030 | 54 | 129 | 4.0 | 11.0 | 0.00 | 0.00 | 0.00 | 74 | 1011.6 |
| 20260506174528 | 57 | 360 | 0.0 | 3.0 | 0.00 | 0.00 | 0.00 | 72 | 1011.5 |
| 20260506173025 | 55 | 360 | 0.0 | 4.0 | 0.00 | 0.00 | 0.00 | 74 | 1011.5 |
| 20260506171534 | 56 | 360 | 0.0 | 1.0 | 0.00 | 0.00 | 0.00 | 73 | 1011.3 |
| 20260506170021 | 57 | 360 | 0.0 | 4.0 | 0.00 | 0.00 | 0.00 | 74 | 1011.3 |
| 20260506164523 | 58 | 360 | 1.0 | 4.0 | 0.00 | 0.00 | 0.00 | 74 | 1011.2 |
| 20260506163020 | 59 | 360 | 2.0 | 5.0 | 0.00 | 0.00 | 0.00 | 65 | 1011.1 |
| 20260506161519 | 60 | 360 | 2.0 | 7.0 | 0.00 | 0.00 | 0.00 | 72 | 1011.1 |
| 20260506160021 | 60 | 360 | 2.0 | 5.0 | 0.00 | 0.00 | 0.00 | 72 | 1011.1 |
| 20260506154519 | 58 | 360 | 2.0 | 8.0 | 0.00 | 0.00 | 0.00 | 73 | 1011.1 |
| 20260506153013 | 59 | 360 | 3.0 | 8.0 | 0.00 | 0.00 | 0.00 | 72 | 1011.1 |
| 20260506151511 | 58 | 360 | 3.0 | 9.0 | 0.00 | 0.00 | 0.00 | 74 | 1011.1 |
| 20260506150008 | 57 | 360 | 3.0 | 9.0 | 0.00 | 0.00 | 0.00 | 75 | 1011.1 |
| 20260506144503 | 57 | 360 | 6.0 | 9.0 | 0.00 | 0.00 | 0.00 | 78 | 1011.0 |
| 20260506143002 | 55 | 360 | 3.0 | 9.0 | 0.00 | 0.00 | 0.00 | 79 | 1011.0 |
| 20260506141502 | 54 | 360 | 1.0 | 10.0 | 0.00 | 0.00 | 0.00 | 82 | 1011.0 |
| 20260506140002 | 54 | 360 | 8.0 | 12.0 | 0.00 | 0.00 | 0.00 | 84 | 1010.9 |
| 20260506134600 | 54 | 360 | 8.0 | 12.0 | 0.00 | 0.00 | 0.00 | 84 | 1010.9 |
| 20260506133100 | 55 | 360 | 9.0 | 13.0 | 0.00 | 0.00 | 0.00 | 83 | 1010.8 |
| 20260506131612 | 57 | 360 | 10.0 | 13.0 | 0.00 | 0.00 | 0.00 | 82 | 1010.6 |
| 20260506130057 | 57 | 360 | 10.0 | 14.0 | 0.00 | 0.00 | 0.00 | 81 | 1010.6 |
| 20260506124555 | 60 | 360 | 7.0 | 12.0 | 0.00 | 0.00 | 0.00 | 76 | 1010.6 |
| 20260506123056 | 60 | 360 | 5.0 | 10.0 | 0.00 | 0.00 | 0.00 | 74 | 1010.5 |
| 20260506121558 | 62 | 67 | 4.0 | 15.0 | 0.00 | 0.00 | 0.00 | 70 | 1010.5 |
| 20260506120055 | 62 | 40 | 5.0 | 11.0 | 0.00 | 0.00 | 0.00 | 69 | 1010.5 |
| 20260506114555 | 61 | 360 | 7.0 | 14.0 | 0.00 | 0.00 | 0.00 | 74 | 1010.6 |
| 20260506113050 | 61 | 360 | 5.0 | 11.0 | 0.00 | 0.00 | 0.00 | 73 | 1010.6 |
| 20260506111550 | 60 | 45 | 7.0 | 13.0 | 0.00 | 0.00 | 0.00 | 72 | 1010.5 |
| 20260506110047 | 59 | 360 | 6.0 | 12.0 | 0.00 | 0.00 | 0.00 | 72 | 1010.7 |
| 20260506104546 | 59 | 37 | 5.0 | 11.0 | 0.00 | 0.00 | 0.00 | 70 | 1010.7 |
| 20260506103044 | 59 | 360 | 7.0 | 12.0 | 0.00 | 0.00 | 0.00 | 71 | 1010.7 |
| 20260506101545 | 58 | 360 | 4.0 | 11.0 | 0.00 | 0.00 | 0.00 | 71 | 1010.7 |
| 20260506100053 | 58 | 360 | 5.0 | 9.0 | 0.00 | 0.00 | 0.00 | 70 | 1010.8 |
| 20260506094540 | 59 | 360 | 2.0 | 10.0 | 0.00 | 0.00 | 0.00 | 69 | 1010.8 |
| 20260506093036 | 58 | 360 | 4.0 | 10.0 | 0.00 | 0.00 | 0.00 | 71 | 1010.9 |
| 20260506091534 | 57 | 360 | 3.0 | 10.0 | 0.00 | 0.00 | 0.00 | 69 | 1010.8 |
| 20260506090032 | 56 | 26 | 5.0 | 11.0 | 0.00 | 0.00 | 0.00 | 70 | 1010.8 |
| 20260506084536 | 56 | 360 | 4.0 | 8.0 | 0.00 | 0.00 | 0.00 | 71 | 1010.8 |
| 20260506083029 | 55 | 360 | 2.0 | 7.0 | 0.00 | 0.00 | 0.00 | 72 | 1010.7 |
| 20260506081525 | 54 | 360 | 3.0 | 10.0 | 0.00 | 0.00 | 0.00 | 73 | 1010.8 |
| 20260506073018 | 52 | 360 | 2.0 | 7.0 | 0.00 | 0.00 | 0.00 | 75 | 1010.8 |
| 20260506071515 | 50 | 360 | 4.0 | 8.0 | 0.00 | 0.00 | 0.00 | 77 | 1010.8 |
| 20260506061509 | 50 | 41 | 3.0 | 7.0 | 0.00 | 0.00 | 0.00 | 74 | 1011.0 |
| 20260506050106 | 46 | 360 | 3.0 | 7.0 | 0.00 | 0.00 | 0.00 | 79 | 1011.2 |
| 20260506044556 | 43 | 360 | 1.0 | 5.0 | 0.00 | 0.00 | 0.00 | 82 | 1011.2 |